Dennison, MN

6:28 PM CST on December 03, 2016 (GMT -0600)
Stanton

Weather History for KSYN - December, 2012

Change the Weather History Date:

Sunday, December 9, 2012

  Actual Average (KLVN) Record (KLVN)
Temperature  
Mean Temperature 30 °F -  
Max Temperature 33 °F 27 °F 50 °F (1990)
Min Temperature 26 °F 11 °F -17 °F (1958)
Degree Days  
Heating Degree Days 36    
Moisture  
Dew Point 29 °F    
Average Humidity 89    
Maximum Humidity 93    
Minimum Humidity 74    
Precipitation  
Precipitation 0.01 in - - ()
Sea Level Pressure  
Sea Level Pressure 29.86 in    
Wind  
Wind Speed 10 mph (East)    
Max Wind Speed 17 mph    
Max Gust Speed 22 mph    
Visibility 4 miles    
Events Snow    
Averages and records for this station are not official NWS values.
T = Trace of Precipitation, MM = Missing Value Source: NWS Daily Summary

Daily Weather History Graph

Daily Weather History Graph

Search for Another Location

Airport or City:

Trip Planner

Search our weather history database for the weather conditions in past years. The results will help you decide how hot, cold, wet, or windy it might be!

Date:

Astronomy

Dec. 09, 2012 Rise Set
Actual Time 7:37 AM CST 4:32 PM CST
Civil Twilight 7:03 AM CST 5:05 PM CST
Nautical Twilight 6:27 AM CST 5:42 PM CST
Astronomical Twilight 5:51 AM CST 6:17 PM CST
Moon 3:03 AM CST (12/9) 1:45 PM CST (12/9)
Length of Visible Light 10h 01m
Length of Day
8h 55m
Waning Crescent, 18% of the Moon is Illuminated
Dec 9
Waning Crescent
Dec 13
New
Dec 19
First Quarter
Dec 28
Full
Jan 4
Last Quarter

Hourly Weather History & Observations

Time (CST) Temp. Windchill Dew Point Humidity Pressure Visibility Wind Dir Wind Speed Gust Speed Precip Events Conditions
12:12 AM 33.1 °F 24.9 °F 25.5 °F 74% 29.98 in 10.0 mi ESE 10.4 mph - N/A   Clear
12:32 AM 33.3 °F 25.7 °F 25.7 °F 74% 29.98 in 10.0 mi ESE 9.2 mph - N/A   Clear
12:52 AM 33.3 °F 25.7 °F 26.1 °F 75% 29.98 in 10.0 mi ESE 9.2 mph - N/A Snow Light Snow
1:13 AM 32.5 °F 24.8 °F 27.3 °F 81% 29.97 in 4.0 mi ESE 9.2 mph 16.1 mph N/A Snow Light Snow
1:32 AM 32.4 °F 25.3 °F 27.9 °F 83% 29.98 in 4.0 mi ESE 8.1 mph - N/A Snow Light Snow
1:53 AM 32.0 °F 24.2 °F 28.4 °F 87% 29.97 in 1.8 mi ESE 9.2 mph - N/A Snow Light Snow
2:12 AM 32.0 °F 24.2 °F 28.2 °F 86% 29.96 in 4.0 mi ESE 9.2 mph - N/A Snow Light Snow
2:32 AM 32.0 °F 25.6 °F 28.2 °F 86% 29.96 in 5.0 mi ESE 6.9 mph - N/A Snow Light Snow
2:53 AM 32.0 °F 23.6 °F 28.4 °F 87% 29.95 in 4.0 mi East 10.4 mph - N/A Snow Light Snow
3:12 AM 32.0 °F 25.6 °F 28.6 °F 87% 29.95 in 2.0 mi ESE 6.9 mph - N/A Snow Light Snow
3:33 AM 32.0 °F 25.6 °F 28.9 °F 88% 29.95 in 2.5 mi ESE 6.9 mph - N/A Snow Light Snow
3:52 AM 32.0 °F 25.6 °F 29.1 °F 89% 29.95 in 1.5 mi East 6.9 mph - N/A Snow Light Snow
4:12 AM 32.0 °F 25.6 °F 29.1 °F 89% 29.95 in 3.0 mi ESE 6.9 mph - N/A Snow Light Snow
4:32 AM 32.0 °F 26.4 °F 29.3 °F 90% 29.95 in 1.8 mi ESE 5.8 mph - N/A Snow Light Snow
4:53 AM 32.0 °F 24.2 °F 29.7 °F 91% 29.94 in 1.5 mi East 9.2 mph - N/A Snow Light Snow
5:12 AM 32.0 °F 24.2 °F 29.7 °F 91% 29.93 in 2.0 mi East 9.2 mph - N/A Snow Light Snow
5:32 AM 32.0 °F 23.0 °F 29.3 °F 90% 29.91 in 7.0 mi East 11.5 mph - N/A   Overcast
5:53 AM 32.0 °F 23.0 °F 29.1 °F 89% 29.91 in 7.0 mi East 11.5 mph - N/A   Overcast
6:12 AM 32.2 °F 23.8 °F 29.3 °F 89% 29.91 in 7.0 mi East 10.4 mph - N/A   Overcast
6:32 AM 32.2 °F 23.2 °F 29.3 °F 89% 29.90 in 5.0 mi East 11.5 mph 17.3 mph N/A   Overcast
6:53 AM 32.5 °F 22.3 °F 29.3 °F 88% 29.90 in 7.0 mi East 15.0 mph 19.6 mph N/A   Overcast
7:12 AM 32.9 °F 24.7 °F 29.3 °F 87% 29.90 in 10.0 mi ESE 10.4 mph 20.7 mph N/A   Overcast
7:32 AM 32.9 °F 23.2 °F 29.5 °F 87% 29.89 in 4.0 mi ESE 13.8 mph 18.4 mph N/A Snow Light Snow
7:53 AM 32.9 °F 23.7 °F 29.8 °F 88% 29.90 in 1.8 mi ESE 12.7 mph 17.3 mph N/A Snow Light Snow
8:12 AM 32.9 °F 23.7 °F 29.8 °F 88% 29.89 in 1.2 mi ESE 12.7 mph 18.4 mph N/A Snow Light Snow
8:32 AM 32.9 °F 25.3 °F 29.8 °F 88% 29.90 in 1.8 mi ESE 9.2 mph 16.1 mph N/A Snow Light Snow
8:53 AM 32.9 °F 23.7 °F 30.0 °F 89% 29.88 in 0.8 mi ESE 12.7 mph 20.7 mph N/A Snow Light Snow
9:12 AM 32.9 °F 23.2 °F 30.2 °F 90% 29.88 in 0.5 mi ESE 13.8 mph 20.7 mph N/A Snow Light Snow
9:32 AM 33.1 °F 23.0 °F 30.2 °F 89% 29.89 in 1.0 mi ESE 15.0 mph 21.9 mph N/A Snow Light Snow
9:52 AM 32.9 °F 24.7 °F 30.2 °F 90% 29.88 in 1.0 mi ESE 10.4 mph - N/A Snow Light Snow
10:32 AM 33.1 °F 23.4 °F 30.2 °F 89% 29.86 in 1.0 mi ESE 13.8 mph 20.7 mph N/A Snow Light Snow
10:52 AM 33.1 °F 23.0 °F 30.2 °F 89% 29.86 in 1.0 mi ESE 15.0 mph 20.7 mph N/A Snow Light Snow
11:12 AM 33.1 °F 23.4 °F 30.2 °F 89% 29.84 in 1.0 mi ESE 13.8 mph 18.4 mph N/A Snow Light Snow
11:33 AM 33.1 °F 24.4 °F 30.2 °F 89% 29.84 in 1.0 mi ESE 11.5 mph - N/A Snow Light Snow
11:52 AM 32.9 °F 25.3 °F 30.2 °F 90% 29.83 in 0.8 mi East 9.2 mph - N/A Snow Light Snow
12:12 PM 32.9 °F 24.1 °F 30.2 °F 90% 29.82 in 0.8 mi East 11.5 mph - N/A Snow Light Snow
12:33 PM 32.5 °F 21.9 °F 30.2 °F 91% 29.81 in 0.5 mi East 16.1 mph - 0.01 in Snow Light Snow
12:52 PM 32.5 °F 23.7 °F 30.2 °F 91% 29.81 in 0.8 mi East 11.5 mph - 0.01 in Snow Light Snow
1:12 PM 32.4 °F 23.5 °F 30.0 °F 91% 29.79 in 0.5 mi East 11.5 mph - N/A Snow Snow
1:33 PM 32.2 °F 25.8 °F 30.2 °F 92% 29.78 in 0.5 mi East 6.9 mph - N/A Snow Snow
1:52 PM 32.0 °F 24.8 °F 30.0 °F 92% 29.78 in 0.5 mi East 8.1 mph - N/A Snow Snow
2:12 PM 32.0 °F 26.4 °F 30.2 °F 93% 29.78 in 0.5 mi East 5.8 mph - N/A Snow Snow
2:33 PM 32.0 °F 28.7 °F 30.2 °F 93% 29.78 in 0.5 mi East 3.5 mph - N/A Snow Snow
2:52 PM 32.0 °F - 30.0 °F 92% 29.78 in 0.8 mi Calm Calm - N/A Snow Light Snow
3:12 PM 32.0 °F 25.6 °F 30.0 °F 92% 29.78 in 1.2 mi East 6.9 mph - N/A Snow Light Snow
3:33 PM 32.0 °F 26.4 °F 29.7 °F 91% 29.78 in 1.0 mi East 5.8 mph - N/A Snow Light Snow
3:52 PM 32.0 °F 25.6 °F 29.3 °F 90% 29.79 in 1.2 mi East 6.9 mph - N/A Snow Light Snow
4:12 PM 32.0 °F 28.7 °F 29.3 °F 90% 29.79 in 1.8 mi ENE 3.5 mph - N/A Snow Light Snow
4:33 PM 31.8 °F 26.2 °F 29.3 °F 90% 29.78 in 5.0 mi ENE 5.8 mph - N/A Snow Light Snow
4:52 PM 31.8 °F 26.2 °F 29.3 °F 90% 29.79 in 10.0 mi NE 5.8 mph - N/A Snow Light Snow
5:12 PM 31.6 °F 27.0 °F 29.1 °F 90% 29.79 in 10.0 mi NE 4.6 mph - N/A   Overcast
5:33 PM 31.3 °F 24.7 °F 29.1 °F 92% 29.80 in 7.0 mi NNE 6.9 mph - N/A Snow Light Snow
5:52 PM 31.1 °F 24.5 °F 28.9 °F 92% 29.80 in 5.0 mi NE 6.9 mph - N/A Snow Light Snow
6:12 PM 31.1 °F 23.1 °F 28.9 °F 92% 29.79 in 3.0 mi NNE 9.2 mph - N/A Snow Light Snow
6:32 PM 30.7 °F 21.4 °F 28.4 °F 91% 29.79 in 5.0 mi NNE 11.5 mph - N/A Snow Light Snow
6:53 PM 30.7 °F 22.0 °F 28.4 °F 91% 29.80 in 4.0 mi NNE 10.4 mph - N/A Snow Light Snow
7:12 PM 30.6 °F 21.8 °F 28.2 °F 91% 29.80 in 3.0 mi North 10.4 mph - N/A Snow Light Snow
7:32 PM 30.2 °F 20.8 °F 27.9 °F 91% 29.81 in 4.0 mi North 11.5 mph - N/A Snow Light Snow
7:53 PM 30.2 °F 21.3 °F 27.5 °F 90% 29.81 in 3.0 mi North 10.4 mph - N/A Snow Light Snow
8:12 PM 30.0 °F 19.5 °F 27.1 °F 89% 29.81 in 5.0 mi North 13.8 mph - N/A Snow Light Snow
8:32 PM 30.0 °F 20.5 °F 27.1 °F 89% 29.81 in 2.5 mi North 11.5 mph - N/A Snow Light Snow
8:52 PM 30.0 °F 21.1 °F 27.3 °F 90% 29.81 in 3.0 mi North 10.4 mph - N/A Snow Light Snow
9:12 PM 30.2 °F 20.2 °F 27.1 °F 88% 29.81 in 7.0 mi North 12.7 mph - N/A Snow Light Snow
9:32 PM 30.0 °F 19.5 °F 27.0 °F 88% 29.82 in 7.0 mi North 13.8 mph - N/A Snow Light Snow
9:52 PM 29.8 °F 19.3 °F 26.6 °F 88% 29.82 in 5.0 mi North 13.8 mph - N/A Snow Light Snow
10:13 PM 29.7 °F 19.6 °F 26.4 °F 88% 29.82 in 7.0 mi North 12.7 mph - N/A Snow Light Snow
10:32 PM 29.7 °F 18.6 °F 26.6 °F 88% 29.83 in 5.0 mi North 15.0 mph - N/A Snow Light Snow
10:52 PM 29.8 °F 20.3 °F 26.6 °F 88% 29.83 in 7.0 mi North 11.5 mph - N/A Snow Light Snow
11:12 PM 28.2 °F 16.8 °F 24.4 °F 86% 29.84 in 7.0 mi NNW 15.0 mph - N/A Snow Light Snow
11:32 PM 26.6 °F 13.8 °F 22.8 °F 86% 29.84 in 7.0 mi NNW 17.3 mph - N/A   Overcast
11:52 PM 26.1 °F 13.6 °F 22.1 °F 85% 29.85 in 7.0 mi NW 16.1 mph - N/A   Mostly Cloudy